Regional Weather Roundup
Issued by NWS

Home | Current Version | Previous Version | Text Only | Print | Product List | Glossary On
Versions: 1 2 3 4 5 6 7 8 9 10 11 12 13 14 15 16 17 18 19 20 21 22 23 24 25 26 27 28 29 30 31 32 33 34 35 36 37 38 39 40 41 42 43 44 45 46 47 48 49 50
499
ASPQ40 PGUM 260912
RWRPQ
WEATHER ROUNDUP FOR THE MARIANAS AND MICRONESIA
NATIONAL WEATHER SERVICE TIYAN GU
700 PM CHST TUE SEP 26 2017

GUZ001>004-261000-
MARIANA ISLANDS-

CITY           SKY/WX    TMP DP  RH WIND       PRES   REMARKS
GUAM AIRPORT   PTCLDY    84  79  84 E9        29.83R HX  96
ANDERSEN AFB   PTCLDY    82  75  78 E12       29.84
ROTA AIRPORT   PTCLDY    82  73  74 VRB6      29.83R
TINIAN AP      PTCLDY    82  77  83 NE12      29.81R HX  91
SAIPAN AP      MOCLDY    84  79  84 NE13      29.82R HX  96

$$

PMZ161-261000-
REPUBLIC OF PALAU-

CITY           SKY/WX    TMP DP  RH WIND       PRES   REMARKS
KOROR AP       CLOUDY    75  73  94 CALM      29.84F
KOROR WSO      LGT RAIN  77  75  94 CALM      29.86S

$$

PMZ171>174-261000-
FEDERATED STATES OF MICRONESIA-

CITY           SKY/WX    TMP DP  RH WIND       PRES   REMARKS
YAP AIRPORT    CLOUDY    79  75  89 VRB6      29.81R
CHUUK AP       CLOUDY    81  77  89 VRB5      29.80R
POHNPEI AP     NOT AVBL
POHNPEI WSO    CLOUDY    81  77  89 SE5       29.84R
KOSRAE AP      NOT AVBL

$$

PMZ181-261000-
REPUBLIC OF THE MARSHALL ISLANDS-

CITY           SKY/WX    TMP DP  RH WIND       PRES   REMARKS
KWAJALEIN AP   CLEAR     79  73  83 CALM      29.86R
MAJURO AP      NOT AVBL
MAJURO WSO     MOCLDY    84  72  65 SE7       29.84R

$$





USA.gov is the U.S. government's official web portal to all federal, state and local government web resources and services.